Regional Weather Roundup
Issued by NWS

Home | Current Version | Previous Version | Graphics & Text | Print | Product List | Glossary On
Versions: 1 2 3 4 5 6 7 8 9 10 11 12 13 14 15 16 17 18 19 20 21 22 23 24 25 26 27 28 29 30 31 32 33 34 35 36 37 38 39 40 41 42 43 44 45 46 47 48 49 50
000
ASUS43 KDMX 031907
RWRIA

WEATHER ROUNDUP FOR IOWA
NATIONAL WEATHER SERVICE DES MOINES IA
200 PM CDT THU SEP 03 2015

NOTE: "FAIR" INDICATES FEW OR NO CLOUDS BELOW 12,000 FEET WITH NO
SIGNIFICANT WEATHER AND/OR OBSTRUCTIONS TO VISIBILITY.

* - THESE STATIONS ARE NOT NWS STATIONS...THUS NOT UNDER NWS
QUALITY CONTROL.  THEY ALSO DO NOT REPORT WEATHER SUCH
AS PRECIPITATION OR FOG.

IAZ001>003-012>014-020>022-031>034-043>046-032000-
   NORTHWEST IOWA

CITY           SKY/WX    TMP DP  RH WIND       PRES   REMARKS
CARROLL *      SUNNY     86  73  66 S14       29.86F HX  93
CHEROKEE *     SUNNY     86  72  62 S8        29.84F HX  92
DENISON *      SUNNY     84  73  70 S10       29.84S HX  91
LE MARS *      SUNNY     86  72  62 SE10G17   29.84S HX  92
ORANGE CITY *  SUNNY     84  72  65 SE7       29.84F HX  89
SHELDON *      SUNNY     84  73  70 SE8G17    29.84F HX  91
SIOUX CITY     SUNNY     86  64  47 SE12      29.81F HX  87
SPENCER        SUNNY     87  72  60 SE12G18   29.86F HX  93
STORM LAKE *   SUNNY     84  73  70 S8G17     29.87F HX  91
$$

IAZ055>058-069>071-079>083-090>094-032000-
   SOUTHWEST IOWA

CITY           SKY/WX    TMP DP  RH WIND       PRES   REMARKS
ATLANTIC *     SUNNY     88  72  58 S14       29.87F HX  94
AUDUBON *      SUNNY     88  75  66 S10       29.88F HX  97
CLARINDA *     SUNNY     88  73  62 S13       29.90S HX  96
COUNCIL BLFS * SUNNY     90  72  55 S14       29.86F HX  96
CRESTON *      SUNNY     86  72  62 S15       29.91F HX  92
LAMONI         SUNNY     88  71  57 SW13      29.91F HX  94
RED OAK *      SUNNY     88  73  62 S12       29.87F HX  96
SHENANDOAH *   SUNNY     91  72  52 S14       29.87F HX  98
$$

IAZ047>049-059>061-072>074-084-032000-
   CENTRAL IOWA

CITY           SKY/WX    TMP DP  RH WIND       PRES   REMARKS
AMES           SUNNY     88  72  58 S8        29.88F HX  94
ANKENY *       SUNNY     88  72  58 S10G18    29.88F HX  94
CHARITON *     SUNNY     88  72  58 VRB7G16   29.92F HX  94
DES MOINES     MOSUNNY   88  72  58 S10       29.88F HX  94
GRINNELL*      SUNNY     88  72  58 S9        29.91F HX  94
KNOXVILLE *    SUNNY     88  72  58 SW10      29.89F HX  94
MARSHALLTOWN   SUNNY     89  71  55 SW9       29.89F HX  95
PELLA *        SUNNY     90  75  62 S8        29.91F HX 100
PERRY *          N/A     90  72  55 S6        29.87F HX  96
$$

IAZ004>006-015-016-023>025-035-036-032000-
   NORTH CENTRAL IOWA

CITY           SKY/WX    TMP DP  RH WIND       PRES   REMARKS
ALGONA *       SUNNY     86  73  66 S9G15     29.88S HX  93
CLARION *      SUNNY     86  73  66 SE8       29.88F HX  93
ESTHERVILLE    SUNNY     84  73  69 SE14      29.87F HX  90
FORT DODGE *   SUNNY     88  72  58 S9        29.88F HX  94
MASON CITY     SUNNY     87  74  64 S9        29.90F HX  95
FOREST CITY *  SUNNY     86  70  58 SE9       29.89S HX  90
IOWA FALLS *     N/A     88  72  58 S7        29.90F HX  94
$$

IAZ007>011-017>019-026>030-037>042-050>054-066-032000-
   NORTHEAST IOWA

CITY           SKY/WX    TMP DP  RH WIND       PRES   REMARKS
CEDAR RAPIDS   SUNNY     88  76  67 SE8       29.91F HX  99
CHARLES CITY * SUNNY     86  75  70 SE8       29.90F HX  95
CLINTON *      SUNNY     88  73  62 SW8       29.94F HX  96
DECORAH *      SUNNY     86  75  70 E6        29.90F HX  95
DUBUQUE        SUNNY     87  72  60 VRB5      29.93F HX  93
MONTICELLO *   SUNNY     90  73  58 SW8       29.91F HX  98
OELWEIN *      SUNNY     86  75  70 VRB6      29.92S HX  95
WATERLOO       SUNNY     89  71  55 S10       29.88F HX  95
$$

IAZ064-065-067-068-078-032000-
   EAST CENTRAL IOWA

CITY           SKY/WX    TMP DP  RH WIND       PRES   REMARKS
DAVENPORT      SUNNY     89  71  55 SW10      29.93F HX  95
IOWA CITY      SUNNY     88  72  58 S8        29.92F HX  94
MT. PLEASANT * SUNNY     93  61  33 SW9       29.93F HX  93
MUSCATINE *    SUNNY     91  70  49 VRB7G14   29.91F HX  97
QUAD CITIES    MOSUNNY   90  70  51 W8        29.91F HX  95
$$

IAZ062-063-075>077-085>089-095>099-032000-
   SOUTHEAST IOWA

CITY           SKY/WX    TMP DP  RH WIND       PRES   REMARKS
BURLINGTON     SUNNY     90  70  51 SW7       29.93F HX  95
FAIRFIELD *    SUNNY     90  70  51 SW9G15    29.92F HX  95
FORT MADISON * SUNNY     90  70  51 SW7       29.94F HX  95
KEOKUK *       MOSUNNY   91  68  46 VRB7G15   29.92F HX  95
OSKALOOSA *      N/A     90  72  55 S10       29.91F HX  96
CENTERVILLE *  SUNNY     88  72  58 SW6       29.95F HX  94
OTTUMWA        SUNNY     89  72  56 SW9       29.89F HX  96
WASHINGTON *     N/A    N/A N/A N/A MISG        N/A
$$

ABBREVIATIONS USED IN REMARKS
   TC - TEMPERATURES IN CELSIUS
  WCI - WIND CHILL INDEX
   HX - HEAT INDEX
  VSB - VISIBILITY
$$




USA.gov is the U.S. government's official web portal to all federal, state and local government web resources and services.